Terminal Aerodrome Forecast
Issued by NWS

Home | Current Version | Previous Version | Text Only | Print | Product List | Glossary On
Versions: 1 2 3 4 5 6 7 8 9 10 11 12 13 14 15 16 17 18 19 20 21 22 23 24 25 26 27 28 29 30 31 32 33 34
000
FTPA31 PHFO 240500
TAFOGG
TAF
PHOG 240526Z 2406/2506 06008KT P6SM SCT030 BKN050
     FM242000 02015G23KT P6SM FEW025 SCT045
     FM250500 04008KT P6SM FEW025 SCT045
      AMD LTD TO VIS AND WIND 2409/2416=

USA.gov is the U.S. government's official web portal to all federal, state and local government web resources and services.